Regional Weather Roundup
Issued by NWS Charleston, SC

Current Version | Previous Version | Graphics & Text | Print | Product List | Glossary On
Versions: 1 2 3 4 5 6 7 8 9 10 11 12 13 14 15 16 17 18 19 20 21 22 23 24 25 26 27 28 29 30 31 32 33 34 35 36 37 38 39 40 41 42 43 44 45 46 47 48 49 50
000
ASUS42 KCHS 281112
RWRCHS

REGIONAL WEATHER ROUNDUP
NATIONAL WEATHER SERVICE CHARLESTON SC
700 AM EDT FRI AUG 28 2015

NOTE: "FAIR" INDICATES FEW OR NO CLOUDS BELOW 12,000 FEET WITH NO
SIGNIFICANT WEATHER AND/OR OBSTRUCTIONS TO VISIBILITY.

NOT ALL STATIONS ARE QUALITY CONTROLLED BY THE NATIONAL
WEATHER SERVICE. USE DATA WITH CAUTION...ESPECIALLY
DEWPOINT OBSERVATIONS.

SCZ027-030-031-034>040-042>050-281200-
...SOUTHEAST SOUTH CAROLINA...

CITY           SKY/WX    TMP DP  RH WIND       PRES   REMARKS
N CHARLESTON   MOCLDY    71  69  93 N10       30.07R
WATERFRONT PRK   N/A     74  73  96 NE7       30.02R
MOUNT PLEASANT PTSUNNY   72  70  94 N6        30.06R FOG
JOHNS ISLAND   CLOUDY    73  73 100 N7        30.06R FOG
PINOPOLIS        N/A     73  70  88 NE10      30.00R
MONCKS CORNER  FAIR      70  66  88 CALM      30.08R
SUMMERVILLE    CLOUDY    72  72 100 N3        30.08R
BEAUFORT MCAS  CLOUDY    73  72  96 N9        30.05R FOG
BEAUFORT ARPT  CLOUDY    73  73 100 NE9       30.04S FOG
HILTON HEAD IS CLOUDY    75  75 100 N6        30.06R
WALTERBORO     CLOUDY    73  70  88 NE5       30.08R
ALLENDALE      CLOUDY    72  70  94 CALM      30.07R FOG

...SOUTHERN MIDLANDS AND PEE DEE...

CITY           SKY/WX    TMP DP  RH WIND       PRES   REMARKS
GEORGETOWN     NOT AVBL
KINGSTREE      NOT AVBL
ORANGEBURG     PTCLDY    68  65  90 NE6       30.09R
BARNWELL       CLOUDY    72  70  94 NE3       30.09R
AIKEN          FAIR      64  63  94 NE5       30.13R
MANNING        FAIR      64  63  94 N5        30.09R
COLUMBIA       PTCLDY    71  62  73 NE5       30.10R
SUMTER         PTCLDY    66  62  89 NE7       30.08R
FLORENCE       PTCLDY    67  64  90 N7        30.10R
MYRTLE BEACH   CLEAR     70  63  78 NE7         N/A
N MYRTLE BEACH CLEAR     69  65  86 NE7       30.08R

$$

GAZ063-065-086>088-099>101-113>116-118-119-134>141-150-281200-
...SOUTHEAST GEORGIA...

CITY           SKY/WX    TMP DP  RH WIND       PRES   REMARKS
SAVANNAH ARPT  FOG       73  71  93 NE7       30.04R VSB 1/2
HUNTER AAF     CLOUDY    74  74 100 NE6       30.01R
FORT STEWART   CLOUDY    73  72  95 CALM      30.01R
STATESBORO     CLOUDY    73  32  22 NE3       30.06R
SYLVANIA       CLOUDY    73  73 100 E6        30.08R FOG
CLAXTON        NOT AVBL

...CSRA...CENTRAL AND FAR SOUTHEAST GEORGIA...

CITY           SKY/WX    TMP DP  RH WIND       PRES   REMARKS
THOMSON        CLOUDY    73  72  98 NE6       30.13S
AUGUSTA-BUSH   CLOUDY    71  69  93 NE3       30.08R
AUGUSTA-DANIEL CLOUDY    71  67  87 E6        30.10R
SWAINSBORO     CLOUDY   N/A N/A N/A E6        30.07R
VIDALIA        CLEAR     72  70  94 NE6       30.05R
EASTMAN        FAIR      73  73 100 NE5       30.07R
HAZLEHURST     FAIR      74  74 100 NE5       30.03R
ALMA           CLEAR     73  71  93 VRB5      30.02R
WAYCROSS       CLEAR     76  76 100 CALM      30.02R FOG
JESUP          FAIR      75  73  94 CALM      30.03R
BAXLEY         FAIR      73  73 100 E5        30.02R
BRUNSWICK      CLOUDY    73  72  94 CALM      30.02S
SAINT SIMONS   MOCLDY    79  75  87 E3        30.01R

$$

SCZ027-028-034-036>038-045-046-048>050-GAZ119-141-281200-
...LAKE AND SUPPLEMENTAL COASTAL OBSERVATIONS...

STATION/POSITION TIME  TEMP    WIND        PRES    WAVE   SWELL
                       AIR SEA DIR/SP/G            HT/PER HT/PER/DIR
                 (UTC) (F)     (DEG/KT/KT) (MB)    (FT/S) (FT/S/D)
UPR LAKE MARION  NOT AVBL
WINYAH BAY       0945   69     350/  5     1016.0
LAKE MURRAY      1000   71      40/  2/  4 1018.3R
ACE BASIN NERRS  NOT AVBL
FORT PULASKI     1000   78 85   30/ 10/ 11 1016.7F
SAPELO ISLAND    1000   74      90/  5     1016.0S

$$

ANZ835-935-AMZ111-154-330-350-352-354-370-450-454-472-281200-
...C-MAN AND BUOY OBSERVATIONS...

STATION/POSITION TIME  TEMP    WIND        PRES    WAVE   SWELL
                       AIR SEA DIR/SP/G            HT/PER HT/PER/DIR
                 (UTC) (F)     (DEG/KT/KT) (MB)    (FT/S) (FT/S/D)
BUOY 41004       1050   81 84   30/  8/  8 1016.5R   3/ 9   3/ 9
BUOY 41008       1050   82 85  130/  8/ 10 1016.5R   2/ 9   2/100/ 9
FOLLY BEACH CMAN 1000   74      20/  9/ 11 1017.1R
CAPERS NEARSHORE NOT AVBL
FRIPP NEARSHORE  NOT AVBL


STATION/POSITION TIME  TEMP    WIND        PRES    WAVE   SWELL
                       AIR SEA DIR/SP/G            HT/PER HT/PER/DIR
                 (UTC) (F)     (DEG/KT/KT) (MB)    (FT/S) (FT/S/D)
5E ST. MARYS GA  1021      86                N/A     2/ 9
FRYING PAN BUOY  1050   80 81   60/ 10/ 12 1017.7R
BUOY 41025       1050   78 82   40/ 19/ 23 1017.4R   5/ 5   2/110/ 9
CAPE LOOKOUT NC  1000   77      40/ 20/ 21 1017.5R
BUOY 41002       1050   81 84  170/  2/  4 1016.9R   3/ 8   3/130/ 8
BUOY 41010       1020   82 85  120/  4/  6 1016.0R
ST AUGUSTINE FL  1100   77 85  240/  2/  3 1017.0R


$$



USA.gov is the U.S. government's official web portal to all federal, state and local government web resources and services.